| time (UTC) | temp F | wind direction | speed MPH | gust MPH | rain 1hr in | rain 24hr in | rain mn in | humidity % | barometer mb |
| 20260502190348 | 70 | 0 | 0.0 | 0.0 | 0.00 | 0.00 | 0.00 | 31 | 960.0 |
| 20260502185748 | 70 | 0 | 0.0 | 0.0 | 0.00 | 0.00 | 0.00 | 30 | 960.0 |
| 20260502185147 | 71 | 0 | 0.0 | 0.0 | 0.00 | 0.00 | 0.00 | 30 | 960.0 |
| 20260502184546 | 72 | 0 | 0.0 | 0.0 | 0.00 | 0.00 | 0.00 | 30 | 960.0 |
| 20260502183945 | 72 | 0 | 0.0 | 0.0 | 0.00 | 0.00 | 0.00 | 28 | 960.0 |
| 20260502183345 | 73 | 0 | 0.0 | 0.0 | 0.00 | 0.00 | 0.00 | 28 | 960.0 |
| 20260502182744 | 74 | 0 | 0.0 | 0.0 | 0.00 | 0.00 | 0.00 | 27 | 960.0 |
| 20260502182143 | 74 | 0 | 0.0 | 0.0 | 0.00 | 0.00 | 0.00 | 25 | 960.0 |
| 20260502181542 | 74 | 0 | 0.0 | 0.0 | 0.00 | 0.00 | 0.00 | 24 | 960.0 |
| 20260502180941 | 75 | 0 | 0.0 | 0.0 | 0.00 | 0.00 | 0.00 | 24 | 960.0 |
| 20260502180341 | 75 | 0 | 0.0 | 0.0 | 0.00 | 0.00 | 0.00 | 24 | 960.0 |
| 20260502170333 | 78 | 0 | 0.0 | 0.0 | 0.00 | 0.00 | 0.00 | 20 | 960.0 |
| 20260502163930 | 79 | 0 | 0.0 | 0.0 | 0.00 | 0.00 | 0.00 | 19 | 960.0 |
| 20260502162728 | 80 | 0 | 0.0 | 0.0 | 0.00 | 0.00 | 0.00 | 19 | 960.0 |
| 20260502162127 | 80 | 0 | 0.0 | 0.0 | 0.00 | 0.00 | 0.00 | 19 | 960.0 |
| 20260502161526 | 80 | 0 | 0.0 | 0.0 | 0.00 | 0.00 | 0.00 | 19 | 960.0 |
| 20260502160925 | 80 | 0 | 0.0 | 0.0 | 0.00 | 0.00 | 0.00 | 19 | 960.0 |
| 20260502160325 | 80 | 0 | 0.0 | 0.0 | 0.00 | 0.00 | 0.00 | 18 | 960.0 |
| 20260502152119 | 82 | 0 | 0.0 | 0.0 | 0.00 | 0.00 | 0.00 | 17 | 961.0 |
| 20260502151518 | 83 | 0 | 0.0 | 0.0 | 0.00 | 0.00 | 0.00 | 17 | 961.0 |
| 20260502150918 | 83 | 0 | 0.0 | 0.0 | 0.00 | 0.00 | 0.00 | 17 | 961.0 |
| 20260502150317 | 83 | 0 | 0.0 | 0.0 | 0.00 | 0.00 | 0.00 | 17 | 961.0 |
| 20260502130301 | 97 | 0 | 0.0 | 0.0 | 0.00 | 0.00 | 0.00 | 12 | 962.0 |
| 20260502123256 | 86 | 0 | 0.0 | 0.0 | 0.00 | 0.00 | 0.00 | 18 | 963.0 |
| 20260502122656 | 84 | 0 | 0.0 | 0.0 | 0.00 | 0.00 | 0.00 | 20 | 963.0 |
| 20260502122055 | 83 | 0 | 0.0 | 0.0 | 0.00 | 0.00 | 0.00 | 20 | 963.0 |
| 20260502121454 | 82 | 0 | 0.0 | 0.0 | 0.00 | 0.00 | 0.00 | 21 | 963.0 |
| 20260502120853 | 81 | 0 | 0.0 | 0.0 | 0.00 | 0.00 | 0.00 | 23 | 963.0 |
| 20260502120252 | 80 | 0 | 0.0 | 0.0 | 0.00 | 0.00 | 0.00 | 23 | 963.0 |
| 20260502115652 | 79 | 0 | 0.0 | 0.0 | 0.00 | 0.00 | 0.00 | 23 | 963.0 |
| 20260502115051 | 78 | 0 | 0.0 | 0.0 | 0.00 | 0.00 | 0.00 | 23 | 963.0 |
| 20260502114450 | 78 | 0 | 0.0 | 0.0 | 0.00 | 0.00 | 0.00 | 24 | 963.0 |
| 20260502113849 | 77 | 0 | 0.0 | 0.0 | 0.00 | 0.00 | 0.00 | 26 | 963.0 |
| 20260502112648 | 76 | 0 | 0.0 | 0.0 | 0.00 | 0.00 | 0.00 | 27 | 963.0 |
| 20260502112047 | 76 | 0 | 0.0 | 0.0 | 0.00 | 0.00 | 0.00 | 27 | 964.0 |
| 20260502111446 | 75 | 0 | 0.0 | 0.0 | 0.00 | 0.00 | 0.00 | 26 | 964.0 |
| 20260502110845 | 75 | 0 | 0.0 | 0.0 | 0.00 | 0.00 | 0.00 | 26 | 964.0 |
| 20260502110245 | 74 | 0 | 0.0 | 0.0 | 0.00 | 0.00 | 0.00 | 27 | 964.0 |
| 20260502105644 | 74 | 0 | 0.0 | 0.0 | 0.00 | 0.00 | 0.00 | 28 | 964.0 |
| 20260502105043 | 73 | 0 | 0.0 | 0.0 | 0.00 | 0.00 | 0.00 | 28 | 964.0 |
| 20260502104442 | 73 | 0 | 0.0 | 0.0 | 0.00 | 0.00 | 0.00 | 29 | 964.0 |
| 20260502103841 | 72 | 0 | 0.0 | 0.0 | 0.00 | 0.00 | 0.00 | 29 | 964.0 |
| 20260502103241 | 72 | 0 | 0.0 | 0.0 | 0.00 | 0.00 | 0.00 | 30 | 964.0 |
| 20260502102640 | 72 | 0 | 0.0 | 0.0 | 0.00 | 0.00 | 0.00 | 30 | 964.0 |
| 20260502102039 | 71 | 0 | 0.0 | 0.0 | 0.00 | 0.00 | 0.00 | 30 | 964.0 |
| 20260502101438 | 71 | 0 | 0.0 | 0.0 | 0.00 | 0.00 | 0.00 | 29 | 964.0 |
| 20260502100837 | 70 | 0 | 0.0 | 0.0 | 0.00 | 0.00 | 0.00 | 30 | 964.0 |
| 20260502100237 | 70 | 0 | 0.0 | 0.0 | 0.00 | 0.00 | 0.00 | 30 | 964.0 |
| 20260502091430 | 67 | 0 | 0.0 | 0.0 | 0.00 | 0.00 | 0.00 | 35 | 965.0 |
| 20260502090830 | 67 | 0 | 0.0 | 0.0 | 0.00 | 0.00 | 0.00 | 35 | 965.0 |
| 20260502090229 | 66 | 0 | 0.0 | 0.0 | 0.00 | 0.00 | 0.00 | 36 | 965.0 |
| 20260502071415 | 58 | 0 | 0.0 | 0.0 | 0.00 | 0.00 | 0.00 | 46 | 965.0 |
| 20260502070814 | 58 | 0 | 0.0 | 0.0 | 0.00 | 0.00 | 0.00 | 45 | 965.0 |
| 20260502070213 | 58 | 0 | 0.0 | 0.0 | 0.00 | 0.00 | 0.00 | 46 | 966.0 |
| 20260502065613 | 57 | 0 | 0.0 | 0.0 | 0.00 | 0.00 | 0.00 | 47 | 966.0 |
| 20260502065012 | 56 | 0 | 0.0 | 0.0 | 0.00 | 0.00 | 0.00 | 48 | 966.0 |
| 20260502064411 | 56 | 0 | 0.0 | 0.0 | 0.00 | 0.00 | 0.00 | 49 | 966.0 |
| 20260502063810 | 55 | 0 | 0.0 | 0.0 | 0.00 | 0.00 | 0.00 | 51 | 966.0 |
| 20260502063210 | 54 | 0 | 0.0 | 0.0 | 0.00 | 0.00 | 0.00 | 52 | 965.0 |
| 20260502062609 | 54 | 0 | 0.0 | 0.0 | 0.00 | 0.00 | 0.00 | 52 | 966.0 |
| 20260502062008 | 54 | 0 | 0.0 | 0.0 | 0.00 | 0.00 | 0.00 | 54 | 966.0 |
| 20260502061407 | 53 | 0 | 0.0 | 0.0 | 0.00 | 0.00 | 0.00 | 55 | 966.0 |
| 20260502060807 | 52 | 0 | 0.0 | 0.0 | 0.00 | 0.00 | 0.00 | 56 | 966.0 |
| 20260502060206 | 52 | 0 | 0.0 | 0.0 | 0.00 | 0.00 | 0.00 | 56 | 966.0 |
| 20260502055605 | 52 | 0 | 0.0 | 0.0 | 0.00 | 0.00 | 0.00 | 58 | 966.0 |
| 20260502055004 | 52 | 0 | 0.0 | 0.0 | 0.00 | 0.00 | 0.00 | 59 | 965.0 |
| 20260502054404 | 51 | 0 | 0.0 | 0.0 | 0.00 | 0.00 | 0.00 | 60 | 966.0 |
| 20260502053803 | 50 | 0 | 0.0 | 0.0 | 0.00 | 0.00 | 0.00 | 61 | 966.0 |
| 20260502053202 | 49 | 0 | 0.0 | 0.0 | 0.00 | 0.00 | 0.00 | 63 | 966.0 |
| 20260502052601 | 50 | 0 | 0.0 | 0.0 | 0.00 | 0.00 | 0.00 | 63 | 966.0 |
| 20260502052001 | 49 | 0 | 0.0 | 0.0 | 0.00 | 0.00 | 0.00 | 67 | 966.0 |
| 20260502051400 | 49 | 0 | 0.0 | 0.0 | 0.00 | 0.00 | 0.00 | 69 | 965.0 |
| 20260502050759 | 48 | 0 | 0.0 | 0.0 | 0.00 | 0.00 | 0.00 | 69 | 966.0 |
| 20260502050158 | 48 | 0 | 0.0 | 0.0 | 0.00 | 0.00 | 0.00 | 67 | 966.0 |
| 20260502045558 | 47 | 0 | 0.0 | 0.0 | 0.00 | 0.00 | 0.00 | 68 | 966.0 |
| 20260502044957 | 47 | 0 | 0.0 | 0.0 | 0.00 | 0.00 | 0.00 | 68 | 966.0 |
| 20260502043755 | 47 | 0 | 0.0 | 0.0 | 0.00 | 0.00 | 0.00 | 68 | 966.0 |
| 20260502042554 | 47 | 0 | 0.0 | 0.0 | 0.00 | 0.00 | 0.00 | 67 | 965.0 |
| 20260502041953 | 47 | 0 | 0.0 | 0.0 | 0.00 | 0.00 | 0.00 | 65 | 965.0 |
| 20260502041352 | 46 | 0 | 0.0 | 0.0 | 0.00 | 0.00 | 0.00 | 66 | 965.0 |
| 20260502040752 | 47 | 0 | 0.0 | 0.0 | 0.00 | 0.00 | 0.00 | 66 | 965.0 |
| 20260502040151 | 46 | 0 | 0.0 | 0.0 | 0.00 | 0.00 | 0.00 | 67 | 965.0 |
| 20260502035550 | 48 | 0 | 0.0 | 0.0 | 0.00 | 0.00 | 0.00 | 65 | 965.0 |
| 20260502034949 | 47 | 0 | 0.0 | 0.0 | 0.00 | 0.00 | 0.00 | 65 | 965.0 |
| 20260502034349 | 48 | 0 | 0.0 | 0.0 | 0.00 | 0.00 | 0.00 | 65 | 965.0 |
| 20260502033748 | 47 | 0 | 0.0 | 0.0 | 0.00 | 0.00 | 0.00 | 66 | 965.0 |
| 20260502033147 | 47 | 0 | 0.0 | 0.0 | 0.00 | 0.00 | 0.00 | 66 | 965.0 |
| 20260502031945 | 48 | 0 | 0.0 | 0.0 | 0.00 | 0.00 | 0.00 | 65 | 966.0 |
| 20260502031345 | 47 | 0 | 0.0 | 0.0 | 0.00 | 0.00 | 0.00 | 66 | 965.0 |
| 20260502030744 | 48 | 0 | 0.0 | 0.0 | 0.00 | 0.00 | 0.00 | 63 | 965.0 |
| 20260502030143 | 49 | 0 | 0.0 | 0.0 | 0.00 | 0.00 | 0.00 | 63 | 965.0 |
| 20260502025543 | 49 | 0 | 0.0 | 0.0 | 0.00 | 0.00 | 0.00 | 63 | 966.0 |
| 20260502024942 | 49 | 0 | 0.0 | 0.0 | 0.00 | 0.00 | 0.00 | 63 | 966.0 |
| 20260502024341 | 49 | 0 | 0.0 | 0.0 | 0.00 | 0.00 | 0.00 | 62 | 966.0 |
| 20260502023740 | 48 | 0 | 0.0 | 0.0 | 0.00 | 0.00 | 0.00 | 64 | 966.0 |
| 20260502023139 | 49 | 0 | 0.0 | 0.0 | 0.00 | 0.00 | 0.00 | 62 | 966.0 |
| 20260502022539 | 50 | 0 | 0.0 | 0.0 | 0.00 | 0.00 | 0.00 | 62 | 966.0 |
| 20260502021938 | 50 | 0 | 0.0 | 0.0 | 0.00 | 0.00 | 0.00 | 61 | 966.0 |
| 20260502021337 | 49 | 0 | 0.0 | 0.0 | 0.00 | 0.00 | 0.00 | 62 | 966.0 |
| 20260502020736 | 50 | 0 | 0.0 | 0.0 | 0.00 | 0.00 | 0.00 | 61 | 966.0 |
| 20260502020136 | 50 | 0 | 0.0 | 0.0 | 0.00 | 0.00 | 0.00 | 62 | 966.0 |
| 20260502015535 | 50 | 0 | 0.0 | 0.0 | 0.00 | 0.00 | 0.00 | 61 | 966.0 |
| 20260502014934 | 50 | 0 | 0.0 | 0.0 | 0.00 | 0.00 | 0.00 | 61 | 966.0 |
| 20260502014333 | 50 | 0 | 0.0 | 0.0 | 0.00 | 0.00 | 0.00 | 59 | 966.0 |
| 20260502013733 | 50 | 0 | 0.0 | 0.0 | 0.00 | 0.00 | 0.00 | 62 | 966.0 |
| 20260502013132 | 50 | 0 | 0.0 | 0.0 | 0.00 | 0.00 | 0.00 | 60 | 966.0 |
| 20260502012531 | 51 | 0 | 0.0 | 0.0 | 0.00 | 0.00 | 0.00 | 59 | 966.0 |
| 20260502011930 | 51 | 0 | 0.0 | 0.0 | 0.00 | 0.00 | 0.00 | 57 | 966.0 |
| 20260502011330 | 51 | 0 | 0.0 | 0.0 | 0.00 | 0.00 | 0.00 | 59 | 966.0 |
| 20260502010729 | 52 | 0 | 0.0 | 0.0 | 0.00 | 0.00 | 0.00 | 57 | 966.0 |
| 20260502010128 | 51 | 0 | 0.0 | 0.0 | 0.00 | 0.00 | 0.00 | 57 | 966.0 |
| 20260502005527 | 52 | 0 | 0.0 | 0.0 | 0.00 | 0.00 | 0.00 | 56 | 966.0 |
| 20260502004927 | 52 | 0 | 0.0 | 0.0 | 0.00 | 0.00 | 0.00 | 56 | 966.0 |
| 20260502004326 | 52 | 0 | 0.0 | 0.0 | 0.00 | 0.00 | 0.00 | 55 | 966.0 |
| 20260502003725 | 52 | 0 | 0.0 | 0.0 | 0.00 | 0.00 | 0.00 | 56 | 966.0 |
| 20260502003124 | 52 | 0 | 0.0 | 0.0 | 0.00 | 0.00 | 0.00 | 56 | 966.0 |
| 20260502002524 | 52 | 0 | 0.0 | 0.0 | 0.00 | 0.00 | 0.00 | 55 | 966.0 |
| 20260502001923 | 52 | 0 | 0.0 | 0.0 | 0.00 | 0.00 | 0.00 | 55 | 966.0 |
| 20260502001322 | 52 | 0 | 0.0 | 0.0 | 0.00 | 0.00 | 0.00 | 55 | 966.0 |
| 20260502000721 | 52 | 0 | 0.0 | 0.0 | 0.00 | 0.00 | 0.00 | 55 | 966.0 |
| 20260502000121 | 53 | 0 | 0.0 | 0.0 | 0.00 | 0.00 | 0.00 | 54 | 966.0 |
| 20260501235520 | 52 | 0 | 0.0 | 0.0 | 0.00 | 0.00 | 0.00 | 55 | 966.0 |
| 20260501234919 | 53 | 0 | 0.0 | 0.0 | 0.00 | 0.00 | 0.00 | 52 | 966.0 |
| 20260501234318 | 54 | 0 | 0.0 | 0.0 | 0.00 | 0.00 | 0.00 | 51 | 966.0 |
| 20260501233717 | 54 | 0 | 0.0 | 0.0 | 0.00 | 0.00 | 0.00 | 52 | 966.0 |
| 20260501233438 | 53 | 0 | 0.0 | 0.0 | 0.00 | 0.00 | 0.00 | 52 | 967.0 |
| 20260501233117 | 53 | 0 | 0.0 | 0.0 | 0.00 | 0.00 | 0.00 | 52 | 967.0 |
| 20260501232516 | 54 | 0 | 0.0 | 0.0 | 0.00 | 0.00 | 0.00 | 51 | 967.0 |
| 20260501231915 | 53 | 0 | 0.0 | 0.0 | 0.00 | 0.00 | 0.00 | 52 | 967.0 |
| 20260501231314 | 54 | 0 | 0.0 | 0.0 | 0.00 | 0.00 | 0.00 | 50 | 967.0 |
| 20260501230714 | 55 | 0 | 0.0 | 0.0 | 0.00 | 0.00 | 0.00 | 48 | 967.0 |
| 20260501230113 | 55 | 0 | 0.0 | 0.0 | 0.00 | 0.00 | 0.00 | 49 | 967.0 |
| 20260501225512 | 55 | 0 | 0.0 | 0.0 | 0.00 | 0.00 | 0.00 | 48 | 967.0 |
| 20260501224911 | 55 | 0 | 0.0 | 0.0 | 0.00 | 0.00 | 0.00 | 47 | 967.0 |
| 20260501224311 | 55 | 0 | 0.0 | 0.0 | 0.00 | 0.00 | 0.00 | 47 | 967.0 |
| 20260501223710 | 55 | 0 | 0.0 | 0.0 | 0.00 | 0.00 | 0.00 | 48 | 967.0 |
| 20260501223109 | 55 | 0 | 0.0 | 0.0 | 0.00 | 0.00 | 0.00 | 47 | 967.0 |
| 20260501222508 | 55 | 0 | 0.0 | 0.0 | 0.00 | 0.00 | 0.00 | 47 | 967.0 |
| 20260501221908 | 56 | 0 | 0.0 | 0.0 | 0.00 | 0.00 | 0.00 | 46 | 967.0 |
| 20260501221307 | 56 | 0 | 0.0 | 0.0 | 0.00 | 0.00 | 0.00 | 46 | 967.0 |
| 20260501220706 | 56 | 0 | 0.0 | 0.0 | 0.00 | 0.00 | 0.00 | 46 | 967.0 |
| 20260501220105 | 57 | 0 | 0.0 | 0.0 | 0.00 | 0.00 | 0.00 | 45 | 967.0 |
| 20260501215505 | 56 | 0 | 0.0 | 0.0 | 0.00 | 0.00 | 0.00 | 45 | 967.0 |
| 20260501214904 | 57 | 0 | 0.0 | 0.0 | 0.00 | 0.00 | 0.00 | 44 | 967.0 |
| 20260501214303 | 57 | 0 | 0.0 | 0.0 | 0.00 | 0.00 | 0.00 | 44 | 967.0 |
| 20260501213702 | 57 | 0 | 0.0 | 0.0 | 0.00 | 0.00 | 0.00 | 43 | 967.0 |
| 20260501213101 | 58 | 0 | 0.0 | 0.0 | 0.00 | 0.00 | 0.00 | 43 | 967.0 |
| 20260501212501 | 58 | 0 | 0.0 | 0.0 | 0.00 | 0.00 | 0.00 | 42 | 967.0 |
| 20260501211900 | 58 | 0 | 0.0 | 0.0 | 0.00 | 0.00 | 0.00 | 42 | 967.0 |
| 20260501211259 | 58 | 0 | 0.0 | 0.0 | 0.00 | 0.00 | 0.00 | 42 | 967.0 |
| 20260501210658 | 58 | 0 | 0.0 | 0.0 | 0.00 | 0.00 | 0.00 | 41 | 967.0 |
| 20260501210058 | 59 | 0 | 0.0 | 0.0 | 0.00 | 0.00 | 0.00 | 40 | 967.0 |
| 20260501205457 | 59 | 0 | 0.0 | 0.0 | 0.00 | 0.00 | 0.00 | 41 | 967.0 |
| 20260501204856 | 60 | 0 | 0.0 | 0.0 | 0.00 | 0.00 | 0.00 | 40 | 967.0 |
| 20260501204255 | 60 | 0 | 0.0 | 0.0 | 0.00 | 0.00 | 0.00 | 40 | 967.0 |
| 20260501203655 | 60 | 0 | 0.0 | 0.0 | 0.00 | 0.00 | 0.00 | 40 | 967.0 |
| 20260501203054 | 60 | 0 | 0.0 | 0.0 | 0.00 | 0.00 | 0.00 | 38 | 967.0 |
| 20260501202453 | 60 | 0 | 0.0 | 0.0 | 0.00 | 0.00 | 0.00 | 39 | 967.0 |
| 20260501201852 | 61 | 0 | 0.0 | 0.0 | 0.00 | 0.00 | 0.00 | 37 | 967.0 |
| 20260501201251 | 61 | 0 | 0.0 | 0.0 | 0.00 | 0.00 | 0.00 | 38 | 967.0 |
| 20260501200651 | 61 | 0 | 0.0 | 0.0 | 0.00 | 0.00 | 0.00 | 36 | 967.0 |
| 20260501200050 | 62 | 0 | 0.0 | 0.0 | 0.00 | 0.00 | 0.00 | 36 | 967.0 |
| 20260501195449 | 62 | 0 | 0.0 | 0.0 | 0.00 | 0.00 | 0.00 | 35 | 967.0 |
| 20260501194848 | 62 | 0 | 0.0 | 0.0 | 0.00 | 0.00 | 0.00 | 35 | 967.0 |
| 20260501194248 | 63 | 0 | 0.0 | 0.0 | 0.00 | 0.00 | 0.00 | 35 | 967.0 |
| 20260501193647 | 63 | 0 | 0.0 | 0.0 | 0.00 | 0.00 | 0.00 | 34 | 967.0 |
| 20260501193046 | 63 | 0 | 0.0 | 0.0 | 0.00 | 0.00 | 0.00 | 35 | 967.0 |
| 20260501192445 | 63 | 0 | 0.0 | 0.0 | 0.00 | 0.00 | 0.00 | 33 | 967.0 |
| 20260501191844 | 63 | 0 | 0.0 | 0.0 | 0.00 | 0.00 | 0.00 | 33 | 967.0 |
| 20260501191244 | 64 | 0 | 0.0 | 0.0 | 0.00 | 0.00 | 0.00 | 33 | 967.0 |